Flag for Sri Lanka Weather past 2 weeks in Colombo, Sri Lanka

Now
84 °F

Passing clouds.


Feels Like: 92 °F
Forecast: 78 / 87 °F
Wind: 10 mph from Southwest

Location: Katunayake

Current Time: Jul 23, 2014 at 6:04:06 PM

Latest Report: Jul 23, 2014 at 4:40 PM


Visibility: N/A

Pressure: 29.77 "Hg

Humidity: 74%

Dew point: 75 °F

Location of ColomboLocation

Historic Weather in Colombo — Graph

°F

Colombo temperature yesterday

Maximum temperature yesterday: 86 °F (at 9:40 AM)
Minimum temperature yesterday: 81 °F (at 3:40 AM)
Average temperature yesterday: 83 °F

Past Weeks' High & Low Weather Summary

 TemperatureHumidityPressure
High88 °F (Jul 19, 1:40 PM)94% (Jul 10, 10:40 PM)29.92 "Hg (Jul 10, 10:40 PM)
Low75 °F (Jul 10, 10:40 PM)66% (Jul 12, 12:40 PM)29.74 "Hg (Jul 8, 4:40 PM)
Average83 °F78%29.82 "Hg
* Reported Jul 8 4:40 PM — Jul 23 4:40 PM, Colombo, Weather by CustomWeather, © 2014

Note: Actual official high and low records may vary slightly from our data, if they occured in-between our weather recording intervals... More about our weather records

Advertising

Colombo weather history for previous 24 hours

 ConditionsComfort  
Time TempWeatherWind HumidityBarometerVisibility
4:40 PM
Jul 23
84 °FPassing clouds.10 mph74%29.77 "HgN/A
3:40 PM84 °FPassing clouds.10 mph74%29.74 "HgN/A
2:40 PM86 °FPassing clouds.10 mph70%29.77 "HgN/A
1:40 PM84 °FPassing clouds.10 mph70%29.80 "HgN/A
12:40 PM86 °FPassing clouds.10 mph66%29.83 "HgN/A
10:40 AM84 °FPassing clouds.13 mph74%29.86 "HgN/A
9:40 AM84 °FPassing clouds.9 mph74%29.86 "HgN/A
8:40 AM84 °FScattered clouds.9 mph74%29.86 "HgN/A
7:40 AM82 °FPassing clouds.8 mph79%29.86 "HgN/A
6:40 AM81 °FPassing clouds.8 mph84%29.83 "HgN/A
5:40 AM81 °FScattered clouds.8 mph84%29.80 "HgN/A
4:40 AM82 °FPassing clouds.8 mph74%29.80 "HgN/A
9:40 PM
Jul 22
82 °FPassing clouds.13 mph79%29.86 "HgN/A
8:40 PM82 °FPassing clouds.12 mph79%29.83 "HgN/A
7:40 PM81 °FPassing clouds.8 mph79%29.83 "HgN/A
6:40 PM81 °FPassing clouds.9 mph79%29.80 "HgN/A
Weather by CustomWeather, © 2014

See weather overviewHow to use our weather pages